| time (UTC) | temp F | wind direction | speed MPH | gust MPH | rain 1hr in | rain 24hr in | rain mn in | humidity % | barometer mb |
| 20260509200059 | 72 | 250 | 1.0 | 6.0 | 0.00 | 0.00 | 0.00 | 58 | 1018.2 |
| 20260509194543 | 72 | 183 | 2.0 | 7.0 | 0.00 | 0.00 | 0.00 | 56 | 1018.4 |
| 20260509193037 | 71 | 291 | 2.0 | 7.0 | 0.00 | 0.00 | 0.00 | 54 | 1018.5 |
| 20260509191533 | 70 | 200 | 5.0 | 7.0 | 0.00 | 0.00 | 0.00 | 58 | 1018.7 |
| 20260509190033 | 68 | 162 | 4.0 | 7.0 | 0.00 | 0.00 | 0.00 | 61 | 1019.0 |
| 20260509184539 | 68 | 330 | 2.0 | 5.0 | 0.00 | 0.00 | 0.00 | 62 | 1019.3 |
| 20260509183024 | 67 | 237 | 4.0 | 6.0 | 0.00 | 0.00 | 0.00 | 67 | 1019.5 |
| 20260509181521 | 66 | 146 | 3.0 | 5.0 | 0.00 | 0.00 | 0.00 | 66 | 1019.5 |
| 20260509180018 | 66 | 186 | 0.0 | 3.0 | 0.00 | 0.00 | 0.00 | 68 | 1019.7 |
| 20260509174514 | 64 | 146 | 2.0 | 5.0 | 0.00 | 0.00 | 0.00 | 72 | 1019.8 |
| 20260509173012 | 63 | 208 | 2.0 | 5.0 | 0.00 | 0.00 | 0.00 | 73 | 1019.9 |
| 20260509171509 | 62 | 179 | 3.0 | 5.0 | 0.00 | 0.00 | 0.00 | 76 | 1020.0 |
| 20260509170006 | 61 | 200 | 2.0 | 5.0 | 0.00 | 0.00 | 0.00 | 77 | 1020.3 |
| 20260509164502 | 60 | 150 | 0.0 | 4.0 | 0.00 | 0.00 | 0.00 | 77 | 1020.4 |
| 20260509163100 | 59 | 164 | 1.0 | 4.0 | 0.00 | 0.00 | 0.00 | 79 | 1020.6 |
| 20260509161600 | 58 | 115 | 2.0 | 5.0 | 0.00 | 0.00 | 0.00 | 80 | 1020.8 |
| 20260509160054 | 57 | 137 | 2.0 | 4.0 | 0.00 | 0.00 | 0.00 | 81 | 1021.1 |
| 20260509154551 | 56 | 193 | 2.0 | 4.0 | 0.00 | 0.00 | 0.00 | 82 | 1021.1 |
| 20260509153050 | 55 | 145 | 1.0 | 3.0 | 0.00 | 0.00 | 0.00 | 82 | 1021.1 |
| 20260509151544 | 53 | 92 | 0.0 | 2.0 | 0.00 | 0.00 | 0.00 | 78 | 1021.3 |
| 20260509150043 | 51 | 92 | 0.0 | 0.0 | 0.00 | 0.00 | 0.00 | 72 | 1021.4 |
| 20260509144600 | 50 | 38 | 0.0 | 0.0 | 0.00 | 0.00 | 0.00 | 71 | 1021.6 |
| 20260509143041 | 49 | 38 | 0.0 | 0.0 | 0.00 | 0.00 | 0.00 | 71 | 1021.4 |
| 20260509141540 | 47 | 38 | 0.0 | 0.0 | 0.00 | 0.00 | 0.00 | 73 | 1021.4 |
| 20260509140039 | 46 | 38 | 0.0 | 2.0 | 0.00 | 0.00 | 0.00 | 74 | 1021.3 |
| 20260509134558 | 45 | 38 | 0.0 | 0.0 | 0.00 | 0.00 | 0.00 | 76 | 1021.3 |
| 20260509133044 | 45 | 38 | 0.0 | 2.0 | 0.00 | 0.00 | 0.00 | 76 | 1021.0 |
| 20260509131537 | 45 | 38 | 0.0 | 1.0 | 0.00 | 0.00 | 0.00 | 76 | 1021.0 |
| 20260509130051 | 45 | 38 | 0.0 | 1.0 | 0.00 | 0.00 | 0.00 | 77 | 1020.9 |
| 20260509124536 | 45 | 38 | 0.0 | 2.0 | 0.00 | 0.00 | 0.00 | 77 | 1020.9 |
| 20260509123031 | 45 | 38 | 0.0 | 2.0 | 0.00 | 0.00 | 0.00 | 77 | 1021.1 |
| 20260509121541 | 46 | 38 | 0.0 | 2.0 | 0.00 | 0.00 | 0.00 | 77 | 1021.1 |
| 20260509120032 | 46 | 38 | 0.0 | 0.0 | 0.00 | 0.00 | 0.00 | 77 | 1021.1 |
| 20260509114535 | 46 | 38 | 0.0 | 2.0 | 0.00 | 0.00 | 0.00 | 77 | 1021.2 |
| 20260509113033 | 46 | 38 | 0.0 | 0.0 | 0.00 | 0.00 | 0.00 | 77 | 1021.2 |
| 20260509111523 | 46 | 38 | 0.0 | 0.0 | 0.00 | 0.00 | 0.00 | 78 | 1021.3 |
| 20260509110020 | 46 | 38 | 0.0 | 0.0 | 0.00 | 0.00 | 0.00 | 78 | 1021.5 |
| 20260509104533 | 46 | 38 | 0.0 | 0.0 | 0.00 | 0.00 | 0.00 | 79 | 1021.7 |
| 20260509103017 | 47 | 38 | 0.0 | 0.0 | 0.00 | 0.00 | 0.00 | 79 | 1021.7 |
| 20260509101514 | 47 | 38 | 0.0 | 2.0 | 0.00 | 0.00 | 0.00 | 79 | 1021.7 |
| 20260509100013 | 47 | 38 | 0.0 | 2.0 | 0.00 | 0.00 | 0.00 | 79 | 1021.8 |
| 20260509094525 | 48 | 38 | 0.0 | 2.0 | 0.00 | 0.00 | 0.00 | 80 | 1021.7 |
| 20260509093009 | 48 | 38 | 0.0 | 2.0 | 0.00 | 0.00 | 0.00 | 80 | 1021.8 |
| 20260509091506 | 48 | 38 | 0.0 | 2.0 | 0.00 | 0.00 | 0.00 | 80 | 1022.0 |
| 20260509090006 | 49 | 38 | 0.0 | 2.0 | 0.00 | 0.00 | 0.00 | 81 | 1022.0 |
| 20260509084502 | 49 | 38 | 0.0 | 1.0 | 0.00 | 0.00 | 0.00 | 81 | 1022.2 |
| 20260509083103 | 50 | 38 | 0.0 | 3.0 | 0.00 | 0.00 | 0.00 | 81 | 1022.3 |
| 20260509081607 | 51 | 38 | 0.0 | 2.0 | 0.00 | 0.00 | 0.00 | 82 | 1022.5 |
| 20260509080054 | 51 | 294 | 0.0 | 0.0 | 0.00 | 0.00 | 0.00 | 82 | 1022.4 |
| 20260509074551 | 52 | 294 | 0.0 | 2.0 | 0.00 | 0.00 | 0.00 | 82 | 1022.4 |
| 20260509073056 | 52 | 294 | 0.0 | 2.0 | 0.00 | 0.00 | 0.00 | 82 | 1022.5 |
| 20260509071555 | 52 | 334 | 0.0 | 2.0 | 0.00 | 0.00 | 0.00 | 81 | 1022.5 |
| 20260509070049 | 52 | 334 | 1.0 | 2.0 | 0.00 | 0.00 | 0.00 | 82 | 1022.5 |
| 20260509064557 | 52 | 334 | 0.0 | 2.0 | 0.00 | 0.00 | 0.00 | 82 | 1022.5 |
| 20260509063046 | 52 | 334 | 0.0 | 1.0 | 0.00 | 0.00 | 0.00 | 82 | 1022.5 |
| 20260509061542 | 53 | 334 | 1.0 | 3.0 | 0.00 | 0.00 | 0.00 | 82 | 1022.4 |
| 20260509060042 | 53 | 34 | 0.0 | 2.0 | 0.00 | 0.00 | 0.00 | 82 | 1022.3 |
| 20260509054548 | 54 | 34 | 1.0 | 3.0 | 0.00 | 0.00 | 0.00 | 82 | 1022.2 |
| 20260509053041 | 54 | 151 | 0.0 | 1.0 | 0.00 | 0.00 | 0.00 | 81 | 1022.1 |
| 20260509051541 | 55 | 151 | 0.0 | 0.0 | 0.00 | 0.00 | 0.00 | 80 | 1022.0 |
| 20260509050040 | 56 | 153 | 0.0 | 1.0 | 0.00 | 0.00 | 0.00 | 80 | 1022.0 |
| 20260509044539 | 57 | 153 | 0.0 | 1.0 | 0.00 | 0.00 | 0.00 | 78 | 1022.0 |
| 20260509043038 | 58 | 153 | 2.0 | 3.0 | 0.00 | 0.00 | 0.00 | 77 | 1021.8 |
| 20260509041606 | 59 | 5 | 0.0 | 2.0 | 0.00 | 0.00 | 0.00 | 75 | 1021.7 |
| 20260509040039 | 59 | 360 | 1.0 | 4.0 | 0.00 | 0.00 | 0.00 | 73 | 1021.5 |
| 20260509034536 | 60 | 360 | 3.0 | 4.0 | 0.00 | 0.00 | 0.00 | 72 | 1021.5 |
| 20260509033037 | 60 | 355 | 1.0 | 4.0 | 0.00 | 0.00 | 0.00 | 71 | 1021.4 |
| 20260509031537 | 61 | 34 | 1.0 | 4.0 | 0.00 | 0.00 | 0.00 | 69 | 1021.3 |
| 20260509030034 | 61 | 60 | 2.0 | 4.0 | 0.00 | 0.00 | 0.00 | 67 | 1021.2 |
| 20260509024533 | 62 | 63 | 2.0 | 8.0 | 0.00 | 0.00 | 0.00 | 65 | 1021.1 |
| 20260509023032 | 64 | 71 | 2.0 | 8.0 | 0.00 | 0.00 | 0.00 | 63 | 1021.0 |
| 20260509021536 | 64 | 41 | 1.0 | 5.0 | 0.00 | 0.00 | 0.00 | 61 | 1020.9 |
| 20260509020043 | 65 | 82 | 1.0 | 6.0 | 0.00 | 0.00 | 0.00 | 60 | 1020.9 |
| 20260509014532 | 65 | 52 | 2.0 | 5.0 | 0.00 | 0.00 | 0.00 | 60 | 1020.8 |
| 20260509013040 | 66 | 18 | 3.0 | 8.0 | 0.00 | 0.00 | 0.00 | 58 | 1020.9 |
| 20260509011530 | 67 | 262 | 0.0 | 6.0 | 0.00 | 0.00 | 0.00 | 59 | 1021.0 |
| 20260509010029 | 67 | 54 | 1.0 | 6.0 | 0.00 | 0.00 | 0.00 | 56 | 1021.0 |
| 20260509004533 | 68 | 345 | 3.0 | 8.0 | 0.00 | 0.00 | 0.00 | 54 | 1021.0 |
| 20260509003027 | 67 | 305 | 2.0 | 8.0 | 0.00 | 0.00 | 0.00 | 55 | 1020.9 |
| 20260509001527 | 69 | 283 | 3.0 | 8.0 | 0.00 | 0.00 | 0.00 | 53 | 1021.0 |
| 20260509000024 | 68 | 20 | 2.0 | 7.0 | 0.00 | 0.00 | 0.00 | 55 | 1021.1 |
| 20260508234524 | 68 | 283 | 1.0 | 7.0 | 0.00 | 0.00 | 0.00 | 55 | 1021.2 |
| 20260508233021 | 67 | 238 | 3.0 | 7.0 | 0.00 | 0.00 | 0.00 | 56 | 1021.2 |
| 20260508231520 | 67 | 209 | 5.0 | 9.0 | 0.00 | 0.00 | 0.00 | 56 | 1021.2 |
| 20260508230029 | 67 | 224 | 3.0 | 9.0 | 0.00 | 0.00 | 0.00 | 58 | 1021.2 |
| 20260508224525 | 67 | 200 | 6.0 | 9.0 | 0.00 | 0.00 | 0.00 | 57 | 1021.2 |
| 20260508223021 | 67 | 243 | 6.0 | 11.0 | 0.00 | 0.00 | 0.00 | 56 | 1021.3 |
| 20260508221514 | 66 | 172 | 3.0 | 10.0 | 0.00 | 0.00 | 0.00 | 59 | 1021.4 |
| 20260508220020 | 66 | 252 | 6.0 | 9.0 | 0.00 | 0.00 | 0.00 | 58 | 1021.4 |
| 20260508214523 | 65 | 187 | 5.0 | 9.0 | 0.00 | 0.00 | 0.00 | 58 | 1021.4 |
| 20260508213008 | 64 | 291 | 2.0 | 7.0 | 0.00 | 0.00 | 0.00 | 61 | 1021.5 |
| 20260508211518 | 64 | 200 | 5.0 | 8.0 | 0.00 | 0.00 | 0.00 | 62 | 1021.6 |
| 20260508210005 | 63 | 174 | 2.0 | 5.0 | 0.00 | 0.00 | 0.00 | 60 | 1021.6 |
| 20260508204504 | 62 | 80 | 1.0 | 6.0 | 0.00 | 0.00 | 0.00 | 64 | 1021.6 |
| 20260508203101 | 60 | 309 | 3.0 | 4.0 | 0.00 | 0.00 | 0.00 | 64 | 1021.7 |
| 20260508201601 | 61 | 213 | 4.0 | 7.0 | 0.00 | 0.00 | 0.00 | 65 | 1021.6 |